Temperature
24 25 26 26 26 26 25 23 23 23 23 24 23 23 24 24 24 24 23 23 24 23 23 23 22 22 22 22 21 21 21 20 20 20 20 19 19 19 19 18 18 18 18 18
24 25 26 26 27 27 26 26 25 24 24 24 24 24 24 24 23 23 23 23 23 23 23 23 22 22 22 21 21 21 21 21 20 20 19 19 19 19 19 18 18 18 18 18
22 23 25 24 25 26 26 25 25 24 24 23 23 23 23 23 23 23 23 23 23 23 23 23 22 22 21 21 21 20 20 20 20 20 19 19 19 19 19 18 18 18 18 18
20 22 23 23 24 26 25 24 24 23 23 23 23 23 24 24 24 23 23 23 23 23 23 23 22 22 22 21 21 20 20 20 20 20 19 19 19 18 18 18 18 18 18 18
18 20 22 23 24 25 24 23 23 23 23 23 23 23 22 23 24 24 24 24 23 23 23 22 22 22 21 21 20 20 20 20 19 19 19 19 19 18 18 18 18 18 18 18
18 21 21 22 24 25 24 22 22 22 22 22 22 20 20 23 23 23 24 23 23 23 22 22 22 21 21 20 20 19 19 19 19 19 19 19 18 18 18 18 18 18 18 18
18 19 20 21 23 24 22 21 22 22 22 22 21 22 22 22 23 23 23 23 23 22 22 22 21 21 20 20 20 19 19 19 18 18 18 18 18 18 18 18 18 18 18 17
17 19 20 21 22 21 20 22 22 22 22 22 22 22 22 22 22 22 22 22 22 22 21 21 21 20 20 20 19 19 19 18 18 18 18 18 18 18 18 18 17 17 17 17
17 18 19 21 22 22 22 22 22 22 22 22 22 21 22 22 22 21 21 21 21 21 21 20 20 20 20 19 19 18 18 18 18 18 18 17 18 17 17 17 17 17 17 16
17 18 19 21 22 22 22 22 22 22 22 21 21 21 21 21 21 21 21 20 20 20 20 20 19 19 19 18 18 18 18 17 17 17 17 17 17 17 17 17 17 17 16 16
17 17 19 20 21 21 22 22 21 21 21 21 21 20 20 20 20 20 20 20 20 19 19 19 19 18 18 18 18 18 17 17 17 17 17 17 17 17 17 16 16 16 16 16
16 18 18 19 21 21 21 21 20 20 20 20 20 20 20 20 20 19 19 19 19 19 18 18 18 18 18 17 17 17 17 17 17 17 17 16 16 16 16 16 16 16 16 16
20 20 21 21 20 20 20 20 20 20 20 19 19 19 19 19 19 19 19 19 18 18 18 18 17 17 17 17 17 17 17 16 16 16 16 16 16 16 16 16 16 15 15 15
20 20 20 20 20 20 20 19 19 19 19 19 19 19 18 18 18 18 18 18 18 18 17 17 17 17 17 17 16 16 16 16 16 16 16 16 15 15 16 15 15 15 15 15
19 20 19 19 19 19 19 19 18 18 18 18 18 18 18 18 18 17 17 17 17 17 17 17 17 16 16 16 16 16 16 15 15 15 15 15 15 15 15 15 15 15 15 15
18 19 19 18 18 18 18 18 17 17 17 17 17 17 17 17 17 17 17 17 16 16 16 16 16 16 16 16 16 15 15 15 15 15 15 15 15 15 14 14 14 14 14 14
18 17 18 17 17 17 17 17 17 17 17 16 16 16 16 16 16 16 16 16 16 16 16 16 15 15 15 15 15 15 15 15 15 14 14 14 14 14 14 14 14 14 14 14
17 17 17 17 17 17 17 17 16 16 16 16 16 16 16 15 15 15 15 15 15 15 15 15 15 15 15 15 15 14 14 14 14 14 14 14 14 14 14 14 14 13 13 13
17 17 17 17 17 16 16 16 16 16 16 16 15 15 15 15 15 15 15 15 15 15 15 15 14 14 14 14 14 14 14 14 14 14 13 13 13 13 13 13 13 13 13 13
16 17 16 16 16 16 16 16 15 15 15 15 15 15 15 15 15 14 14 14 14 14 14 14 14 14 14 14 13 13 13 13 13 13 13 13 13 13 13 13 13 13 12 12
16 16 15 15 15 15 15 15 15 15 15 15 14 14 14 14 14 14 14 14 14 14 14 14 14 13 13 13 13 13 13 13 12 12 12 12 12 12 12 12 12 12 12 12
15 15 15 15 15 15 15 15 15 14 14 14 14 14 14 14 14 14 14 13 13 13 13 13 13 13 13 13 13 12 12 12 12 12 12 12 12 12 11 11 11 11 11 11
14 14 14 14 14 14 14 14 14 14 14 14 14 14 14 14 14 13 13 13 13 13 13 13 13 12 13 12 12 12 12 12 12 11 11 11 11 11 11 11 11 11 11 11
14 14 14 14 14 14 13 13 13 13 13 13 13 13 13 13 13 13 13 13 13 13 12 12 12 12 12 12 12 12 11 11 11 11 11 11 11 11 11 11 10 10 10 10
13 13 13 13 13 13 13 13 13 13 13 13 13 13 13 13 13 13 12 12 12 12 12 12 12 12 12 11 11 11 11 11 11 11 11 10 10 10 10 10 10 10 10 10
13 13 13 13 13 13 13 13 13 13 13 13 13 13 13 12 12 12 12 12 12 12 11 11 11 11 11 11 11 10 10 10 10 10 10 10 10 10 10 10 9 9 9 9
13 13 13 13 13 13 12 12 12 12 12 12 12 12 12 12 12 12 12 11 11 11 11 11 11 10 10 10 10 10 10 10 10 10 10 10 9 9 9 9 9 9 9 8
Wind_Speed
5 5 3 3 5 4 4 7 8 9 10 10 11 10 10 10 9 8 6 7 7 7 6 7 6 6 6 6 6 6 6 6 7 6 5 5 5 4 4 4 4 4 3 3
2 2 1 2 4 3 3 3 4 6 6 6 7 7 8 9 10 8 7 7 7 7 7 7 7 6 6 6 6 7 7 6 5 4 5 5 5 5 4 4 4 3 4 4
3 4 3 3 4 2 2 2 5 6 7 5 7 9 11 11 9 9 9 8 7 7 7 7 6 7 6 6 5 5 6 5 4 4 4 5 5 4 5 5 4 4 4 4
1 2 5 9 5 2 2 1 1 3 5 9 10 9 7 9 10 9 8 8 8 7 6 5 4 4 4 4 4 5 4 4 4 4 4 4 4 5 5 4 4 4 4 4
3 3 5 7 4 1 2 2 2 3 7 8 9 8 4 2 7 8 7 7 7 7 6 6 5 5 4 4 4 4 5 5 5 5 4 4 5 6 5 4 4 4 4 5
4 4 6 6 7 3 6 1 4 2 7 7 7 5 4 3 5 6 6 5 6 6 6 5 5 5 5 3 3 4 5 5 5 5 5 5 6 5 4 4 4 4 4 4
4 4 5 6 5 4 4 5 4 2 5 5 5 6 6 6 5 5 5 5 5 6 6 5 5 6 5 3 4 4 3 2 3 4 5 6 5 4 3 3 3 4 4 4
4 4 6 5 2 3 6 4 1 1 3 4 5 6 6 6 7 6 5 5 5 5 5 4 6 6 5 4 4 2 2 2 3 4 5 5 4 4 4 4 4 4 4 4
6 6 5 3 4 5 5 4 2 3 3 6 7 6 5 5 5 5 5 4 4 5 4 3 4 6 5 4 3 2 2 3 4 4 4 4 5 5 4 4 4 4 4 5
1 2 2 1 2 2 3 4 3 4 5 6 6 5 4 4 4 4 3 4 4 5 4 2 2 3 4 4 3 2 2 3 3 4 4 4 3 4 4 4 5 5 5 5
1 2 1 2 1 2 4 5 6 5 4 5 7 6 5 4 4 4 4 3 4 4 3 3 3 3 2 3 3 2 2 2 3 3 4 4 4 4 5 6 6 6 6 5
5 7 4 4 3 3 4 3 5 5 3 2 5 5 4 4 4 5 4 3 3 3 2 2 2 2 2 2 3 2 2 3 3 4 4 4 3 3 4 5 7 9 9 7
5 5 5 4 2 2 2 3 4 5 4 3 2 4 5 3 2 3 3 3 3 3 2 2 2 2 2 2 2 2 3 3 4 4 3 3 4 4 4 4 5 6 8 8
3 3 2 2 2 2 3 4 4 4 4 4 3 4 4 3 2 2 2 3 3 3 2 2 2 3 3 2 2 3 3 4 4 3 3 3 4 4 4 4 4 4 5 7
3 4 5 3 3 3 3 5 5 4 4 3 3 3 3 2 1 2 2 2 2 2 1 2 2 4 4 2 2 3 3 3 3 3 2 3 3 3 3 4 4 4 4 4
2 1 3 4 4 3 4 5 5 4 4 3 2 2 1 2 2 2 1 2 2 2 3 3 4 5 4 3 3 3 3 5 4 2 2 2 2 2 3 4 4 4 5 4
1 1 2 3 3 3 4 5 5 4 4 3 3 2 3 2 1 2 3 2 3 4 4 4 4 4 3 3 3 3 3 3 4 2 2 3 3 3 3 3 4 4 5 5
3 4 3 4 5 3 3 4 4 4 3 3 3 3 2 2 2 3 3 2 2 2 3 3 3 3 2 2 2 2 2 2 2 2 2 3 3 3 2 3 4 4 4 3
1 1 1 2 3 4 4 4 3 3 3 3 3 3 2 2 2 2 2 1 2 3 4 3 2 1 1 2 2 1 1 2 2 2 2 3 3 3 2 2 3 3 3 3
1 2 3 2 2 3 4 3 3 2 2 2 2 2 1 1 1 1 2 2 3 4 4 3 1 1 2 2 2 1 1 2 2 2 2 2 3 3 3 3 3 4 3 3
3 3 4 4 3 2 2 3 3 2 2 2 2 2 2 2 1 1 1 3 4 3 2 2 1 2 2 2 2 1 1 1 1 2 2 2 2 3 3 3 3 3 3 3
3 4 4 5 4 3 1 1 2 2 2 2 2 2 1 1 1 0 2 3 3 2 1 1 2 3 3 2 1 1 1 1 1 1 2 2 2 2 3 3 3 3 2 2
3 3 4 4 4 3 3 3 3 2 2 1 1 1 1 2 2 2 2 2 2 1 1 2 3 3 2 1 0 1 1 1 1 1 1 2 2 3 3 3 2 2 2 2
2 3 3 3 4 4 3 2 2 2 1 1 0 1 1 0 1 1 1 1 1 1 1 2 3 3 1 0 0 1 1 1 1 1 1 1 2 2 2 2 2 2 2 2
2 2 3 3 3 1 0 1 2 2 2 2 2 1 1 1 1 1 0 0 1 2 1 2 3 2 1 1 1 1 1 1 1 1 1 1 1 1 2 2 2 2 2 2
2 1 2 2 2 1 1 1 1 1 1 2 2 2 2 1 1 1 1 2 2 2 2 1 2 2 1 1 2 2 1 2 2 1 1 1 1 2 2 2 3 2 2 2
1 1 1 1 1 0 1 1 1 1 1 2 1 2 2 2 2 2 2 2 2 2 2 1 1 2 2 2 2 2 2 2 2 2 2 2 2 2 2 2 2 2 2 2
Wind_Direction
214 218 211 240 243 223 195 187 186 207 195 204 195 180 171 161 148 134 137 144 148 152 155 154 157 168 175 178 179 174 175 189 203 206 202 202 204 208 210 212 220 221 209 211
304 279 305 294 276 251 223 191 188 174 211 212 178 152 144 151 148 149 157 158 156 154 151 156 165 173 175 178 183 177 182 196 205 203 202 204 207 207 204 215 224 219 214 218
262 293 18 277 240 233 247 221 168 185 215 170 141 153 162 161 158 163 166 164 163 161 162 166 171 170 179 185 177 176 188 197 201 199 204 207 203 199 209 218 221 223 219 212
173 53 225 241 250 203 137 34 101 152 158 159 158 161 157 157 162 168 166 163 162 158 157 157 154 151 162 164 168 179 191 198 206 210 212 212 208 216 222 221 220 223 222 220
137 189 261 296 310 353 121 347 350 134 139 140 125 94 63 141 154 159 161 164 164 160 156 148 149 150 144 164 180 188 199 211 211 205 210 217 224 227 226 220 224 222 216 220
141 172 216 248 288 325 100 7 321 107 144 150 126 128 203 181 138 130 132 129 137 135 132 143 161 148 139 164 182 208 217 221 218 208 211 219 227 225 223 220 226 225 230 233
166 205 248 260 291 50 115 227 272 137 140 145 155 175 177 146 124 126 119 119 125 129 142 167 163 145 151 170 201 219 224 227 227 224 219 220 222 225 225 218 226 231 235 244
157 188 246 278 53 137 204 224 182 105 107 114 119 123 129 128 130 130 124 126 127 132 146 157 153 150 161 195 219 218 220 235 238 236 234 232 227 231 226 216 226 236 240 255
181 208 240 258 164 175 158 127 102 98 91 108 111 117 123 124 130 130 131 130 130 129 134 139 154 158 174 211 214 217 242 251 252 251 244 237 225 224 228 223 227 237 238 248
108 237 240 38 75 91 111 115 110 108 109 108 114 119 115 126 128 123 115 116 118 114 120 136 153 162 186 204 196 195 242 267 265 257 259 252 232 220 221 227 229 234 236 245
166 245 46 4 44 116 77 81 83 70 76 115 122 122 129 141 144 143 135 130 132 136 143 172 173 174 187 185 172 182 232 264 271 254 243 241 240 231 226 227 221 224 232 231
211 220 183 217 216 138 107 98 110 101 69 97 124 131 132 148 150 144 142 137 133 138 150 180 177 193 205 195 178 181 234 262 269 271 254 239 242 270 265 251 250 240 236 234
209 213 186 188 172 122 115 126 129 126 132 128 113 124 124 123 113 126 133 145 160 180 191 200 193 213 226 207 186 202 236 256 268 266 254 239 237 241 266 287 284 267 259 250
193 149 142 167 177 141 125 128 119 117 126 134 124 113 113 112 108 135 175 189 181 180 194 212 207 237 241 215 209 232 244 256 262 252 247 244 241 241 240 246 272 282 276 261
219 181 183 169 140 131 135 131 122 125 126 117 122 119 127 129 157 225 212 185 159 161 207 217 226 248 247 228 230 243 248 261 264 257 248 254 258 261 257 253 254 265 275 281
254 157 150 145 154 158 150 152 152 165 163 154 140 141 156 160 182 237 248 183 167 208 233 226 239 251 244 232 242 253 256 265 263 258 264 273 271 263 266 264 259 259 261 260
188 193 163 159 168 173 176 179 176 177 165 159 171 161 138 136 169 270 273 248 209 225 234 227 236 246 239 231 237 254 266 281 277 274 270 271 270 261 258 256 257 260 262 253
207 203 200 180 171 172 176 165 157 151 159 167 163 146 143 165 224 246 258 266 275 283 271 248 238 244 254 254 251 256 258 265 270 273 278 281 279 272 260 251 255 263 276 274
200 174 163 153 148 145 143 145 152 154 155 147 145 157 170 197 233 247 252 245 243 263 270 262 249 256 273 279 277 261 258 275 292 292 286 289 292 286 274 271 274 273 272 267
83 123 126 127 133 141 147 150 144 141 153 156 156 156 154 226 265 294 280 256 242 230 239 244 235 240 265 279 281 260 257 264 268 276 281 285 290 295 293 286 280 274 267 258
83 108 112 119 116 114 134 143 145 157 182 178 182 205 214 228 212 185 248 288 287 262 233 225 227 247 261 267 263 254 259 272 279 276 284 292 297 300 299 296 288 278 271 266
87 102 101 100 92 72 56 104 142 154 162 183 199 209 208 240 254 187 239 239 257 265 260 255 257 255 263 270 259 240 251 279 283 289 296 296 300 304 304 304 298 294 292 287
89 95 95 97 100 89 54 52 68 88 103 124 164 188 197 213 192 170 250 274 272 279 283 267 282 289 288 281 278 276 280 276 280 287 288 293 300 303 305 311 315 314 311 311
87 95 98 98 90 79 54 28 45 67 78 90 141 186 172 149 317 277 223 257 327 350 339 329 346 342 344 16 350 318 297 295 301 297 296 305 312 319 327 335 338 340 338 337
108 103 99 95 88 89 108 15 48 51 44 29 13 360 0 156 187 245 224 92 41 36 12 351 3 13 51 48 19 1 342 343 331 321 351 14 5 1 354 356 357 346 344 354
142 146 151 147 151 161 140 84 54 18 50 41 5 3 14 25 59 70 65 52 39 35 30 19 23 33 48 53 43 29 14 7 3 6 24 43 37 23 7 357 353 357 358 0
86 91 95 76 45 81 134 133 121 85 72 78 32 8 23 27 38 56 55 49 45 44 35 28 34 40 47 51 45 31 15 12 17 14 20 29 29 14 3 357 2 4 2 8
Height
1486 1482 1480 1482 1483 1483 1489 1495 1504 1499 1495 1488 1485 1484 1484 1487 1489 1493 1496 1497 1499 1500 1503 1505 1507 1509 1511 1512 1513 1514 1515 1516 1516 1517 1517 1518 1517 1517 1517 1517 1516 1516 1516 1515
1486 1479 1479 1481 1478 1478 1480 1482 1486 1487 1487 1478 1479 1481 1484 1486 1489 1491 1494 1495 1497 1499 1501 1503 1505 1506 1508 1509 1510 1512 1512 1513 1514 1514 1515 1515 1515 1515 1514 1514 1514 1513 1513 1512
1498 1486 1484 1492 1480 1478 1479 1476 1478 1485 1481 1476 1479 1481 1483 1485 1487 1489 1491 1493 1495 1496 1498 1500 1502 1504 1506 1507 1508 1509 1510 1511 1511 1511 1511 1511 1512 1512 1511 1511 1511 1510 1510 1509
1500 1495 1505 1488 1470 1469 1472 1474 1472 1472 1472 1473 1475 1478 1481 1482 1484 1487 1489 1491 1492 1494 1496 1499 1501 1502 1504 1505 1506 1507 1507 1508 1508 1509 1508 1508 1508 1508 1508 1508 1508 1507 1507 1506
1504 1505 1497 1481 1470 1470 1474 1479 1472 1472 1473 1474 1476 1479 1484 1484 1484 1485 1487 1489 1491 1493 1495 1497 1499 1500 1501 1503 1503 1504 1505 1505 1505 1505 1505 1505 1504 1504 1504 1504 1504 1503 1503 1502
1500 1502 1504 1487 1469 1465 1469 1483 1473 1471 1472 1474 1475 1484 1485 1483 1484 1485 1486 1488 1490 1492 1493 1495 1496 1497 1499 1500 1501 1501 1502 1502 1502 1502 1501 1501 1501 1501 1501 1500 1500 1499 1499 1498
1497 1499 1491 1475 1466 1465 1486 1487 1474 1472 1471 1472 1473 1475 1478 1480 1482 1484 1485 1487 1489 1490 1491 1492 1494 1495 1496 1497 1497 1498 1498 1498 1498 1498 1498 1497 1497 1497 1497 1496 1496 1495 1494 1494
1495 1500 1494 1469 1466 1473 1477 1472 1471 1472 1471 1472 1472 1474 1477 1479 1480 1483 1484 1486 1487 1488 1489 1490 1492 1493 1493 1494 1495 1495 1495 1495 1494 1494 1494 1494 1493 1493 1493 1492 1492 1491 1490 1489
1483 1484 1473 1468 1467 1468 1469 1470 1470 1471 1472 1472 1473 1475 1477 1479 1480 1482 1483 1484 1485 1486 1487 1488 1490 1491 1491 1492 1492 1492 1492 1492 1491 1491 1490 1490 1489 1489 1489 1488 1488 1486 1486 1485
1476 1473 1470 1468 1468 1469 1469 1470 1470 1471 1472 1473 1474 1476 1478 1479 1480 1481 1482 1483 1484 1485 1486 1487 1488 1489 1489 1490 1490 1489 1489 1488 1488 1487 1486 1486 1486 1485 1485 1484 1483 1482 1481 1480
1473 1470 1469 1468 1468 1469 1469 1470 1471 1472 1474 1475 1475 1476 1478 1479 1479 1480 1481 1483 1484 1484 1484 1485 1486 1486 1487 1487 1487 1487 1486 1485 1485 1484 1483 1482 1482 1481 1480 1480 1479 1479 1477 1477
1472 1467 1467 1467 1468 1467 1468 1469 1470 1472 1474 1475 1475 1476 1477 1477 1478 1479 1480 1481 1482 1482 1483 1483 1484 1484 1484 1484 1484 1483 1483 1482 1481 1480 1479 1478 1478 1477 1476 1476 1475 1475 1473 1473
1462 1463 1463 1464 1466 1466 1466 1467 1469 1471 1472 1474 1475 1475 1475 1476 1476 1478 1479 1480 1480 1480 1481 1481 1481 1481 1481 1481 1481 1480 1479 1479 1478 1476 1475 1474 1473 1472 1471 1470 1470 1469 1469 1469
1459 1460 1461 1462 1463 1464 1465 1467 1468 1470 1471 1473 1473 1474 1475 1476 1477 1477 1477 1478 1478 1478 1478 1478 1478 1478 1478 1478 1477 1476 1476 1475 1474 1472 1471 1470 1469 1469 1468 1466 1465 1464 1465 1465
1456 1457 1457 1458 1460 1462 1463 1465 1467 1468 1469 1470 1472 1472 1473 1474 1475 1476 1476 1476 1476 1475 1475 1475 1474 1474 1475 1474 1473 1472 1472 1471 1470 1469 1468 1467 1466 1465 1464 1463 1462 1461 1460 1460
1455 1455 1455 1455 1457 1458 1460 1462 1463 1465 1467 1467 1469 1470 1471 1471 1473 1473 1473 1473 1472 1472 1471 1471 1471 1471 1471 1470 1469 1468 1467 1467 1466 1465 1464 1463 1462 1461 1460 1459 1458 1457 1456 1455
1454 1453 1453 1453 1454 1455 1457 1459 1460 1462 1464 1465 1467 1467 1468 1469 1470 1470 1470 1469 1469 1468 1467 1467 1466 1466 1466 1466 1465 1464 1463 1462 1462 1461 1460 1459 1458 1457 1456 1455 1454 1453 1452 1451
1451 1452 1452 1452 1452 1453 1454 1456 1458 1459 1461 1462 1464 1464 1465 1465 1465 1466 1465 1465 1465 1464 1463 1463 1463 1462 1462 1461 1460 1459 1459 1458 1458 1457 1456 1455 1454 1453 1451 1451 1450 1449 1447 1446
1448 1449 1450 1451 1452 1452 1453 1454 1456 1458 1459 1460 1460 1461 1461 1461 1462 1462 1462 1461 1461 1460 1459 1459 1459 1458 1457 1457 1456 1455 1455 1454 1454 1453 1452 1451 1450 1449 1448 1446 1445 1444 1443 1442
1446 1447 1448 1449 1451 1452 1452 1453 1454 1455 1457 1458 1458 1458 1458 1458 1458 1458 1458 1458 1457 1457 1456 1456 1455 1455 1454 1453 1452 1451 1451 1450 1449 1449 1448 1447 1446 1445 1443 1442 1441 1440 1439 1437
1445 1445 1446 1448 1449 1450 1451 1452 1453 1453 1455 1456 1456 1456 1455 1455 1456 1456 1455 1455 1455 1455 1454 1453 1452 1451 1451 1450 1449 1448 1447 1446 1445 1444 1444 1443 1442 1441 1440 1439 1437 1436 1434 1433
1445 1445 1445 1446 1448 1449 1449 1450 1451 1451 1452 1453 1453 1454 1453 1453 1453 1453 1453 1453 1452 1452 1451 1450 1449 1449 1448 1447 1446 1445 1444 1443 1442 1441 1440 1439 1439 1437 1436 1435 1433 1432 1430 1428
1445 1445 1446 1446 1447 1448 1449 1449 1450 1451 1451 1451 1452 1452 1452 1451 1451 1451 1450 1450 1449 1449 1448 1447 1447 1446 1445 1444 1443 1442 1441 1440 1439 1438 1437 1436 1435 1434 1433 1431 1430 1428 1426 1424
1445 1445 1446 1447 1448 1449 1449 1450 1450 1451 1451 1451 1451 1451 1450 1449 1449 1449 1448 1448 1448 1447 1446 1445 1444 1443 1442 1441 1440 1439 1439 1437 1436 1435 1434 1433 1432 1431 1429 1428 1426 1425 1423 1421
1445 1446 1446 1447 1448 1449 1450 1450 1450 1450 1451 1450 1450 1450 1450 1449 1449 1448 1448 1447 1446 1446 1445 1443 1442 1441 1440 1439 1438 1437 1436 1435 1433 1433 1432 1431 1429 1428 1426 1425 1424 1422 1420 1418
1446 1446 1447 1448 1448 1449 1449 1449 1450 1450 1450 1450 1450 1450 1449 1449 1448 1447 1447 1446 1445 1444 1443 1442 1441 1439 1438 1437 1436 1435 1434 1433 1431 1430 1429 1428 1427 1425 1424 1423 1421 1420 1418 1416
1445 1446 1447 1447 1448 1449 1449 1449 1449 1449 1449 1449 1449 1449 1448 1448 1447 1446 1445 1444 1444 1443 1442 1440 1439 1437 1436 1435 1434 1433 1432 1430 1429 1428 1427 1425 1424 1423 1422 1420 1419 1417 1415 1414